Regional Weather Roundup
Issued by NWS

Home | Current Version | Previous Version | Graphics & Text | Print | Product List | Glossary On
Versions: 1 2 3 4 5 6 7 8 9 10 11 12 13 14 15 16 17 18 19 20 21 22 23 24 25 26 27 28 29 30 31 32 33 34 35 36 37 38 39 40 41 42 43 44 45 46 47 48 49 50
268
ASUS43 KDTX 131610
RWRMI
MICHIGAN HOURLY REGIONAL WEATHER ROUNDUP
NATIONAL WEATHER SERVICE DETROIT/PONTIAC MI
1100 AM EST SAT FEB 13 2016

NOTE: "FAIR" INDICATES FEW OR NO CLOUDS BELOW 12,000 FEET WITH NO
SIGNIFICANT WEATHER AND/OR OBSTRUCTION TO VISIBILITY.

MIZ047>049-052>055-059>063-066>070-074>076-081>083-131700-
SOUTHEAST LOWER MICHIGAN

CITY           SKY/WX    TMP DP  RH WIND       PRES   REMARKS
ADRIAN         PTSUNNY   12  -2  53 NW15G23   30.45S WCI  -4
ALMA           CLOUDY    13   5  69 W8        30.43S WCI   2
ANN ARBOR      MOSUNNY   12  -2  53 NW12      30.43R WCI  -2
BAD AXE        SUNNY      1  -8  66 NW13      30.42R WCI -16
CARO           PTSUNNY    3  -6  66 NW5       30.43S WCI  -6
DETROIT CITY   PTSUNNY   10  -2  58 NW14G20   30.44S WCI  -6
DETROIT        PTSUNNY   11   1  64 NW6       30.45S WCI   1
FLINT          CLOUDY     7  -3  64 VRB3      30.43R
GROSSE ILE     PTSUNNY   10   1  67 NW10      30.44R WCI  -3
HILLSDALE      MOSUNNY   11   1  65 NW15      30.41S WCI  -6
HOWELL         PTSUNNY   11   1  63 NW12G20   30.40S WCI  -3

CITY           SKY/WX    TMP DP  RH WIND       PRES   REMARKS
JACKSON        MOSUNNY   12  -2  53 W21G28    30.42R WCI  -7
LAMBERTVILLE   CLOUDY    11   0  61 W12       30.47S WCI  -4
LANSING        PTSUNNY   12  -1  56 NW17G29   30.43R WCI  -5
LAPEER         CLOUDY     3  -7  63 CALM      30.43R
MASON          PTSUNNY   12   1  62 W14       30.41S WCI  -4
MONROE         SUNNY     12   1  60 W12       30.45S WCI  -2
MT. CLEMENS    PTSUNNY    7  -3  63 NW8       30.43R WCI  -6
PONTIAC        CLOUDY     6  -1  73 NW7       30.39R WCI  -6
PORT HOPE        N/A      4  -4  69 NW18G30   30.39R WCI -16
PORT HURON     CLOUDY     5  -8  56 NW10G18   30.44R WCI -10
TRI CITIES     CLOUDY     3  -8  60 CALM      30.46R
MIDLAND        CLOUDY     3 -10  53 CALM      30.45S
TROY           CLOUDY    11  -1  59 NW15      30.45R WCI  -5
SAGINAW HB     CLOUDY     5  -2  72 CALM      30.46R
$$
MIZ043>046-050>051-056>058-064>065-071>073-077>080-131700-
SOUTHWEST LOWER MICHIGAN

CITY           SKY/WX    TMP DP  RH WIND       PRES   REMARKS
BATTLE CREEK   PTSUNNY   11   1  64 NW13      30.44S WCI  -4
BENTON HARBOR  CLOUDY    15   1  53 NW12G22   30.51R WCI   2
BIG RAPIDS     LGT SNOW  10   5  77 NW10      30.39S WCI  -3
COLDWATER      PTSUNNY   13   4  67 W5        30.45S WCI   5
FREMONT        LGT SNOW  10   6  81 N8        30.45R VSB 3/4 WCI  -1
HOLLAND        LGT SNOW  14   7  73 NW12G17   30.48R VSB 1   WCI   0
GRAND RAPIDS   PTSUNNY   13   1  59 NW17G25   30.45R WCI  -4
IONIA          PTSUNNY   13  -1  53 W15G22    30.42S WCI  -2
KALAMAZOO      LGT SNOW  13   5  70 NW7       30.45F WCI   3
LUDINGTON      LGT SNOW  10   2  71 NW12G18   30.47R WCI  -4
MARSHALL       SUNNY     13   1  59 NW7       30.43S WCI   3
MOUNT PLEASANT CLOUDY     7  -1  70 CALM      30.42S
MUSKEGON       LGT SNOW  13   5  70 NW12      30.48R VSB 1   WCI  -1
SOUTH HAVEN    CLOUDY    15   3  58 NW13G22   30.49S WCI   2
$$
MIZ016>042-131700-
NORTHERN LOWER MICHIGAN

CITY           SKY/WX    TMP DP  RH WIND       PRES   REMARKS
ALPENA         MIX PCPN  -1 -12  59 VRB6      30.43S WCI -13
BEAVER ISLAND  PTSUNNY    4  -4  68 CALM      30.42S
BELLAIRE       MOSUNNY    1 -10  60 CALM      30.45S
CADILLAC       LGT SNOW   3  -2  79 NE3       30.34R VSB 1
CHARLEVOIX     MOSUNNY   -1 -12  60 SE8       30.45S WCI -16
FRANKFORT      LGT SNOW  11   1  65 N13G21    30.43S WCI  -4
GAYLORD        MOSUNNY   -6 -14  68 S6        30.35R WCI -19
GRAYLING       MOSUNNY   -7 -13  72 CALM      30.39R
HARBOR SPRINGS SUNNY     -4 -14  60 CALM      30.43S
HOUGHTON LAKE  CLOUDY     1 -10  60 CALM      30.39R
MANISTEE       CLOUDY    10   1  67 NW15G23   30.44R WCI  -6
OSCODA         SUNNY     -1 -14  53 NW10G16   30.43S WCI -17
PELLSTON       SUNNY     -5 -15  62 SE7       30.44R WCI -19
ROGERS CITY    LGT SNOW  -3 -10  72 SW8       30.44S WCI -18
TRAVERSE CITY  LGT SNOW   2  -3  80 E6        30.43R WCI  -9
$$
MIZ007>008-015-131700-
EASTERN UPPER MICHIGAN

CITY           SKY/WX    TMP DP  RH WIND       PRES   REMARKS
KINROSS        SUNNY     -6 -18  54 NE5       30.42S WCI -17
MACKINAC ISLAN SUNNY     -3 -14  59 NE3       30.42R
NEWBERRY       CLOUDY    -2  -8  76 CALM      30.39S HAZE
S. S. MARIE    SUNNY     -9 -20  58 S3        30.42S
MUNISING         N/A      9   2  73 N16G22    30.42R WCI  -8
$$
MIZ004>006-011>014-085-131700-
CENTRAL UPPER MICHIGAN

CITY           SKY/WX    TMP DP  RH WIND       PRES   REMARKS
MANISTIQUE     CLOUDY     5  -1  74 W10       30.42R HAZE    WCI -10
ESCANABA       SUNNY      7  -8  51 NW14G22   30.47R WCI -10
MENOMINEE      SUNNY      3  -6  66 NW10G18   30.51R WCI -12
SAWYER-GWINN   MOSUNNY    1  -6  71 NW14      30.39R WCI -17
$$
MIZ001>003-009>011-084-131700-
WESTERN UPPER MICHIGAN

CITY           SKY/WX    TMP DP  RH WIND       PRES   REMARKS
IRON MOUNTAIN  MIX PCPN   2  -7  66 NW16G22   30.44R WCI -18
HOUGHTON       LGT SNOW   3  -5  69 NW13      30.45R WCI -14
COPPER HARBOR    N/A      5  -1  76 N20G28    30.46R WCI -15
IRONWOOD       CLOUDY    -2  -6  84 W14       30.48S VSB 1   WCI -21
$$

ABBREVIATIONS USED IN REMARKS
   TC - TEMPERATURE IN CELSIUS
  WCI - WIND CHILL INDEX
   HX - HEAT INDEX
  VSB - VISIBILITY





USA.gov is the U.S. government's official web portal to all federal, state and local government web resources and services.